Wind_Speed
12 12 11 11 11 11 12 12 12 13 14 14 14 14 14 14 14 15 15 15 15 14 13 13 12 12 13 12 12 13 13 14 15 15 16 16 16 17 17 16 16 15 16
13 13 13 13 12 12 13 13 13 14 15 15 15 15 15 15 16 17 15 15 15 15 14 13 13 13 13 13 13 14 14 14 15 16 16 16 17 17 17 17 17 17 17
14 14 14 14 13 13 13 14 14 15 15 15 15 15 16 17 17 17 16 16 16 16 14 14 14 14 14 14 14 15 15 16 16 16 16 16 17 17 17 18 18 19 18
16 16 16 16 15 15 15 15 15 15 16 16 16 16 16 17 17 16 15 15 16 16 15 15 14 14 15 15 15 15 16 17 17 17 16 17 17 18 18 18 19 20 19
17 17 17 18 17 16 16 16 16 16 16 16 16 16 16 17 17 15 14 14 15 16 16 15 15 15 15 15 15 16 17 17 17 17 17 17 17 18 18 18 19 20 20
18 18 18 18 18 18 18 16 16 16 16 17 17 17 16 16 16 16 15 15 15 16 15 15 15 15 15 16 17 18 17 16 16 17 17 18 18 19 19 20 20 20 21
19 18 19 18 19 19 18 18 17 17 17 17 17 17 17 17 17 17 17 16 16 16 16 15 15 16 16 16 17 17 17 17 16 17 17 18 18 19 20 21 21 21 21
19 19 19 19 19 20 19 19 18 18 17 17 17 17 17 18 18 18 18 17 17 17 16 16 16 16 16 17 16 16 16 17 16 17 17 18 18 18 19 21 21 21 21
19 18 19 19 19 19 19 19 19 19 19 18 18 18 18 18 18 19 19 18 17 17 18 17 17 17 17 17 16 16 17 17 17 17 18 17 17 18 19 20 21 21 21
19 18 19 20 20 20 21 21 20 19 19 18 18 19 19 18 19 19 18 18 18 19 19 19 18 18 18 17 17 17 17 17 17 17 17 17 17 17 18 19 19 20 20
21 21 21 21 21 22 22 22 21 21 21 20 20 19 20 20 19 19 19 19 19 19 19 19 19 19 19 18 18 17 16 17 17 17 17 17 17 18 18 18 18 19 19
23 23 23 23 22 23 23 22 22 22 22 22 21 21 21 21 21 20 20 20 20 20 19 19 18 19 18 18 18 17 17 17 17 17 17 17 17 18 18 18 18 18 19
24 23 23 23 23 23 23 23 23 23 23 22 22 22 22 22 21 21 21 21 20 20 19 19 19 19 18 18 17 18 17 17 16 16 16 16 16 17 18 18 18 19 19
24 24 24 24 23 23 23 23 24 23 23 23 23 22 22 22 23 22 21 21 20 19 18 18 19 19 18 18 17 17 17 16 16 16 16 16 16 17 18 18 18 18 19
25 25 25 24 24 24 24 24 24 24 24 23 23 22 22 22 22 22 21 20 19 18 18 18 18 18 18 18 18 17 17 17 17 17 17 16 17 17 18 18 18 18 19
26 26 26 26 25 24 23 24 24 23 22 22 22 22 22 22 21 21 20 19 18 18 17 17 17 17 17 17 18 18 18 18 18 18 17 17 17 17 18 17 18 18 19
27 26 26 26 25 24 23 23 22 22 22 21 21 21 22 22 21 21 19 19 18 18 17 17 17 17 17 17 17 18 18 18 18 18 18 18 17 18 18 18 18 18 19
26 24 25 25 25 24 23 23 22 21 21 21 21 21 21 21 21 20 20 20 19 19 18 18 18 17 17 17 18 17 18 18 17 17 17 17 17 18 18 18 18 19 19
26 26 25 25 24 23 23 22 22 22 21 22 21 21 21 21 21 21 21 21 21 20 19 19 18 18 18 18 18 18 18 17 18 18 18 18 18 18 18 18 18 18 18
26 25 25 25 25 25 24 24 24 23 23 22 22 22 22 22 22 22 22 21 21 21 20 20 19 19 18 18 18 18 18 18 18 18 18 17 17 17 18 18 18 17 17
26 26 25 25 26 25 25 25 24 23 23 23 23 23 23 23 22 22 22 22 22 21 21 20 20 19 19 18 18 18 18 18 18 18 18 17 16 16 17 17 17 17 18
25 26 26 26 26 26 25 25 24 24 24 24 24 23 23 23 23 22 22 22 22 22 21 21 21 20 19 19 19 19 19 19 19 18 17 17 17 17 16 16 17 18 19
25 25 25 26 26 26 25 25 24 24 24 24 24 24 23 23 23 22 22 21 21 22 22 21 21 21 20 20 20 19 19 19 19 18 17 17 17 17 17 17 17 18 19
26 26 25 26 26 26 26 26 25 25 25 25 25 24 24 23 23 22 22 21 21 21 21 20 20 20 20 20 19 19 19 19 19 18 18 17 17 17 17 18 18 19 19
25 26 26 26 26 25 26 26 26 26 26 25 25 24 24 24 23 22 22 21 21 21 21 20 20 20 19 19 19 20 20 19 19 18 18 18 17 17 17 18 18 19 19
25 25 25 26 26 26 26 26 27 27 26 25 24 24 24 24 23 23 22 22 21 21 21 21 20 19 19 19 19 20 20 20 20 19 18 18 18 18 18 18 18 19 19
Wind_Direction
275 279 282 286 287 288 291 293 298 306 311 311 307 303 299 299 298 301 299 296 292 295 297 293 290 287 283 281 279 277 276 272 270 270 270 268 265 263 262 259 259 258 259
273 275 278 282 284 286 289 289 294 302 307 308 307 303 299 297 299 298 291 290 291 291 294 292 290 286 284 282 279 278 277 275 274 271 271 269 265 263 262 259 258 259 259
270 271 274 277 280 285 287 288 291 296 301 306 305 305 302 298 297 293 287 286 290 288 291 291 289 284 284 284 282 280 279 278 275 273 272 270 267 265 262 261 259 260 259
270 271 273 275 278 281 282 283 285 291 296 300 300 301 300 302 300 293 291 292 295 290 291 289 289 289 285 285 283 282 282 280 276 273 272 269 267 265 263 262 261 260 260
270 270 272 273 275 277 280 282 282 287 292 295 298 300 301 302 303 299 295 296 299 297 294 292 290 290 289 287 285 284 282 280 275 271 271 271 268 265 264 263 261 260 259
270 268 269 271 271 273 277 280 282 283 287 291 296 297 297 299 300 296 293 294 298 299 299 296 293 290 290 290 289 285 282 279 274 272 271 270 269 266 265 263 262 262 260
270 268 268 269 269 271 274 277 278 280 284 288 291 292 294 297 298 296 293 292 294 296 298 299 297 293 292 291 291 287 283 283 279 275 274 271 269 267 265 265 264 264 263
269 267 267 269 270 271 272 275 276 278 282 286 290 290 292 295 296 297 293 293 294 293 296 296 294 296 295 293 293 290 285 283 280 277 277 274 269 268 267 265 266 266 266
267 267 267 269 271 273 274 276 277 276 280 284 286 289 292 294 295 295 293 292 292 293 295 295 295 298 296 291 289 288 286 283 281 278 277 274 272 270 267 265 265 266 266
265 267 268 270 271 273 275 277 276 275 277 280 282 286 289 292 294 294 293 293 292 292 293 293 291 292 293 290 286 286 285 282 280 277 277 275 271 270 268 267 267 267 267
267 270 270 270 272 274 275 276 275 274 275 278 279 283 287 290 293 293 292 294 294 294 293 290 289 289 288 288 285 283 283 282 280 278 275 274 271 270 269 268 266 267 268
267 269 268 269 271 272 274 275 274 272 273 275 278 282 285 287 289 290 290 293 294 293 290 288 289 290 288 286 284 281 282 280 279 277 276 276 272 271 270 268 266 267 267
266 267 267 268 270 272 273 273 273 270 271 274 276 278 281 285 287 289 289 291 292 291 288 286 286 288 287 285 283 280 281 281 279 278 276 274 272 272 270 267 266 267 268
264 266 267 268 269 271 271 270 273 270 270 273 274 276 279 282 284 286 289 290 290 289 287 285 285 285 283 282 280 280 278 281 279 279 276 271 270 273 273 269 268 269 270
264 265 266 267 268 269 268 269 271 269 269 271 272 275 277 279 280 284 287 287 287 287 286 285 284 282 281 280 279 278 277 280 281 280 279 273 271 274 274 271 269 269 269
266 265 265 265 266 267 267 268 270 269 270 270 270 272 274 276 278 280 282 282 283 283 283 283 284 282 281 280 279 279 280 280 278 278 276 274 274 275 277 273 269 270 271
266 265 264 264 265 267 269 270 271 270 269 269 270 272 273 274 276 277 279 280 278 279 281 282 283 282 281 280 279 280 281 280 279 280 278 275 275 276 278 276 274 272 271
265 264 263 263 264 267 269 269 269 268 269 268 270 275 275 273 274 276 276 277 277 278 280 281 282 282 280 279 280 280 283 284 282 280 280 278 276 276 276 276 276 274 272
265 265 266 266 266 267 268 269 269 268 268 268 269 273 276 275 273 273 274 275 275 276 278 279 281 281 279 279 280 281 282 283 283 281 281 279 278 277 276 277 279 278 276
263 263 264 264 265 265 266 267 266 269 269 269 271 272 273 274 274 272 271 272 274 274 275 278 280 280 279 279 280 280 281 282 282 283 284 282 280 279 279 280 279 279 279
262 262 262 261 264 266 266 266 267 269 269 269 270 271 270 271 273 271 270 271 274 273 274 275 276 275 276 277 278 279 280 281 282 283 283 282 281 281 280 279 279 280 281
261 262 261 262 263 265 266 267 267 269 270 270 270 270 270 270 270 270 271 273 273 272 273 273 273 272 273 275 276 278 279 280 281 281 280 279 280 280 279 280 281 281 282
261 262 263 263 262 264 266 268 269 269 270 269 268 268 269 269 269 269 270 272 274 274 274 274 273 272 272 273 273 274 275 276 277 278 279 278 280 279 277 278 281 283 283
260 261 263 264 263 263 264 266 268 269 268 268 266 265 266 267 267 267 268 271 273 275 276 276 273 271 271 271 271 273 273 273 274 275 277 278 279 281 280 280 282 284 285
261 262 262 263 262 263 263 264 265 267 267 265 264 263 264 265 266 266 268 269 271 272 274 274 273 270 269 269 270 271 272 273 273 273 275 277 277 277 280 283 285 287 289
262 262 262 262 263 264 264 265 265 265 264 263 264 264 264 264 263 264 265 266 268 269 271 272 271 269 270 271 273 274 272 272 273 273 275 277 279 279 280 282 285 288 290
Height
5882 5881 5881 5880 5879 5879 5878 5877 5876 5875 5873 5872 5870 5869 5867 5866 5865 5864 5862 5861 5859 5858 5856 5855 5854 5853 5852 5851 5850 5849 5849 5849 5849 5848 5848 5848 5848 5848 5848 5848 5848 5848 5847
5879 5879 5878 5877 5877 5876 5875 5874 5873 5872 5871 5870 5868 5866 5864 5863 5862 5861 5859 5858 5856 5855 5853 5852 5851 5849 5848 5847 5846 5846 5845 5845 5844 5844 5844 5843 5844 5843 5843 5843 5843 5843 5843
5876 5876 5875 5874 5874 5873 5873 5872 5871 5870 5869 5867 5865 5864 5862 5860 5859 5857 5855 5854 5853 5851 5850 5849 5847 5846 5845 5844 5843 5842 5841 5841 5840 5839 5839 5839 5839 5838 5838 5838 5839 5839 5839
5872 5872 5871 5871 5871 5870 5869 5868 5867 5867 5866 5864 5863 5861 5859 5857 5855 5853 5851 5850 5849 5847 5846 5845 5843 5842 5841 5840 5839 5838 5837 5836 5835 5834 5834 5834 5834 5834 5834 5834 5834 5834 5835
5868 5867 5867 5867 5867 5866 5866 5865 5864 5863 5862 5861 5860 5858 5856 5854 5852 5850 5848 5847 5845 5844 5842 5841 5839 5838 5837 5836 5835 5833 5832 5831 5830 5829 5829 5829 5829 5829 5829 5829 5829 5830 5830
5863 5863 5863 5863 5863 5862 5862 5861 5861 5860 5859 5858 5856 5855 5853 5851 5849 5846 5845 5843 5842 5840 5838 5837 5835 5834 5833 5831 5830 5829 5827 5826 5825 5824 5824 5824 5824 5824 5824 5824 5824 5824 5824
5859 5859 5858 5858 5858 5858 5858 5857 5857 5856 5855 5854 5853 5851 5849 5847 5845 5843 5841 5840 5838 5836 5835 5833 5831 5830 5828 5827 5825 5823 5822 5821 5820 5819 5819 5818 5818 5818 5819 5819 5819 5819 5819
5854 5854 5854 5854 5854 5853 5853 5853 5852 5852 5851 5850 5849 5847 5845 5844 5842 5840 5837 5835 5834 5832 5831 5829 5827 5825 5824 5822 5820 5818 5817 5816 5814 5814 5814 5813 5813 5813 5813 5813 5813 5814 5814
5849 5849 5849 5849 5849 5849 5848 5848 5848 5847 5847 5846 5845 5843 5841 5840 5838 5835 5833 5831 5830 5828 5826 5824 5823 5821 5820 5818 5816 5814 5812 5811 5810 5809 5809 5808 5808 5808 5808 5808 5808 5808 5808
5843 5844 5844 5844 5844 5843 5843 5843 5842 5842 5841 5840 5840 5839 5837 5835 5833 5831 5829 5827 5825 5823 5821 5819 5818 5816 5815 5813 5811 5809 5807 5806 5805 5804 5804 5803 5803 5803 5803 5803 5802 5802 5802
5838 5838 5838 5838 5838 5838 5837 5837 5836 5836 5836 5835 5834 5833 5832 5830 5828 5826 5824 5822 5820 5818 5815 5814 5812 5811 5810 5808 5807 5805 5803 5801 5800 5799 5799 5798 5798 5798 5798 5797 5797 5797 5796
5831 5832 5832 5832 5832 5831 5831 5831 5830 5830 5829 5829 5828 5828 5826 5825 5823 5821 5819 5817 5814 5812 5809 5808 5807 5806 5804 5803 5802 5800 5798 5797 5795 5794 5794 5794 5793 5793 5793 5792 5792 5792 5791
5825 5825 5825 5825 5825 5825 5825 5824 5824 5823 5823 5822 5822 5822 5821 5819 5818 5816 5814 5811 5809 5806 5804 5802 5801 5800 5799 5798 5796 5795 5794 5792 5791 5790 5789 5789 5788 5788 5788 5787 5787 5787 5786
5818 5818 5818 5818 5818 5818 5818 5817 5817 5816 5816 5816 5816 5815 5815 5814 5812 5810 5808 5806 5804 5801 5799 5797 5796 5795 5793 5792 5791 5790 5789 5787 5786 5785 5784 5784 5784 5783 5783 5782 5782 5782 5781
5811 5811 5811 5811 5812 5811 5811 5811 5810 5809 5809 5809 5809 5809 5808 5807 5806 5804 5803 5801 5799 5797 5795 5793 5791 5789 5787 5786 5785 5784 5783 5782 5781 5780 5779 5779 5779 5778 5778 5777 5777 5776 5776
5804 5804 5804 5804 5804 5804 5804 5804 5803 5803 5803 5803 5802 5802 5802 5801 5800 5798 5797 5796 5794 5792 5790 5788 5786 5784 5782 5781 5780 5779 5778 5777 5776 5775 5774 5774 5773 5773 5772 5772 5771 5771 5770
5796 5796 5796 5797 5797 5797 5797 5796 5796 5796 5796 5796 5796 5795 5795 5794 5793 5792 5791 5790 5789 5787 5785 5783 5781 5779 5778 5776 5775 5774 5773 5772 5771 5770 5769 5768 5768 5767 5767 5766 5766 5765 5765
5788 5788 5789 5789 5790 5790 5790 5789 5789 5789 5789 5789 5789 5789 5788 5788 5787 5786 5785 5784 5783 5782 5780 5778 5776 5775 5773 5772 5771 5770 5768 5767 5766 5765 5764 5763 5762 5762 5761 5761 5760 5759 5759
5780 5781 5781 5782 5783 5783 5783 5782 5783 5783 5783 5782 5782 5782 5782 5781 5780 5780 5779 5778 5777 5776 5774 5773 5771 5770 5768 5767 5766 5765 5764 5762 5761 5760 5759 5758 5757 5757 5756 5755 5754 5754 5753
5772 5773 5774 5775 5775 5776 5776 5776 5776 5776 5776 5776 5776 5775 5775 5774 5773 5773 5772 5771 5770 5769 5768 5767 5766 5764 5763 5762 5761 5760 5759 5758 5756 5755 5754 5753 5752 5751 5750 5749 5749 5748 5748
5764 5765 5766 5767 5768 5768 5768 5768 5768 5768 5768 5768 5768 5768 5767 5767 5766 5766 5765 5764 5763 5762 5761 5761 5760 5758 5758 5757 5756 5754 5753 5752 5751 5750 5749 5748 5747 5746 5745 5744 5743 5743 5742
5757 5757 5758 5759 5760 5760 5760 5760 5761 5761 5760 5760 5760 5760 5759 5759 5759 5758 5758 5757 5756 5756 5755 5754 5753 5752 5751 5751 5750 5749 5748 5747 5746 5744 5743 5743 5742 5741 5740 5739 5738 5737 5736
5748 5749 5750 5751 5752 5752 5753 5753 5753 5753 5752 5752 5752 5752 5752 5752 5751 5751 5751 5750 5749 5748 5748 5747 5746 5746 5745 5744 5743 5743 5742 5741 5740 5739 5738 5737 5736 5735 5734 5734 5733 5732 5731
5740 5741 5741 5742 5743 5744 5744 5745 5745 5745 5744 5744 5744 5744 5744 5744 5744 5744 5743 5743 5742 5742 5741 5740 5740 5739 5738 5738 5737 5736 5736 5735 5734 5733 5732 5731 5730 5730 5729 5728 5727 5726 5725
5731 5732 5733 5734 5735 5735 5736 5737 5737 5736 5736 5736 5736 5736 5736 5736 5736 5736 5736 5736 5736 5735 5734 5734 5733 5733 5732 5731 5731 5730 5729 5729 5728 5727 5727 5726 5725 5724 5723 5723 5722 5721 5719
5723 5724 5725 5725 5726 5727 5727 5728 5728 5728 5728 5728 5728 5728 5728 5728 5728 5729 5729 5729 5729 5728 5728 5727 5727 5726 5726 5725 5725 5724 5723 5723 5722 5722 5721 5720 5720 5719 5718 5717 5716 5715 5713